Regional Weather Roundup
Issued by NWS

Home | Current Version | Previous Version | Graphics & Text | Print | Product List | Glossary On
Versions: 1 2 3 4 5 6 7 8 9 10 11 12 13 14 15 16 17 18 19 20 21 22 23 24 25 26 27 28 29 30 31 32 33 34 35 36 37 38 39 40 41 42 43 44 45 46 47 48 49 50
000
ASUS45 KCYS 281210
RWRWY

WYOMING REGIONAL WEATHER ROUNDUP
NATIONAL WEATHER SERVICE CHEYENNE WY
600 AM MDT THU JUL 28 2016

NOTE:  "FAIR" INDICATES FEW OR NO CLOUDS BELOW 12,000 FEET
WITH NO SIGNIFICANT WEATHER AND/OR OBSTRUCTIONS TO VISIBILITY.

WYZ001-281300-
YELLOWSTONE NATIONAL PARK

CITY           SKY/WX    TMP DP  RH WIND       PRES   REMARKS
LK YELLOWSTONE   N/A     42  42 100 NW3       30.41R
6HR MIN TEMP:  42; 6HR MAX TEMP:  58; 6HR PCP:  0.03;

W YELLOWSTONE  NOT AVBL

$$
WYZ002>013-054>058-071-098>099-281300-
NORTHERN WYOMING

CITY           SKY/WX    TMP DP  RH WIND       PRES   REMARKS
JACKSON        FAIR      52  41  66 N9        30.29R
CODY           MOCLDY    61  54  77 N12       30.29S
GREYBULL       FAIR      62  55  77 W17       30.18R
6HR MIN TEMP:  62; 6HR MAX TEMP:  78; 6HR PCP:  0.03;

WORLAND        FAIR      59  57  93 SW10      30.21R
6HR MIN TEMP:  59; 6HR MAX TEMP:  71; 6HR PCP:  0.06;

SHERIDAN       FAIR      60  57  89 W6        30.20F
6HR MIN TEMP:  60; 6HR MAX TEMP:  68; 6HR PCP:  0.04;

BUFFALO        LGT RAIN  60  51  72 N6        30.21F
6HR MIN TEMP:  59; 6HR MAX TEMP:  66; 6HR PCP:  0.12;

GILLETTE       RAIN      61  60  97 W20       30.22R
6HR MIN TEMP:  59; 6HR MAX TEMP:  67; 6HR PCP:  0.09;

HULETT         FAIR      55  52  88 SE7       30.17R
NEWCASTLE      FAIR      57  54  88 NW7       30.17R

$$
WYZ014>020-022>026-101>103-281300-
CENTRAL WYOMING

CITY           SKY/WX    TMP DP  RH WIND       PRES   REMARKS
BIG PINEY      FAIR      50  30  46 E9        30.30R
6HR MIN TEMP:  46; 6HR MAX TEMP:  59;

PINEDALE       FAIR      45  34  65 NW8       30.31S
DUBOIS         FAIR      50  34  53 W8        30.33S HAZE
LANDER         MOCLDY    63  49  60 NE10      30.28R
6HR MIN TEMP:  62; 6HR MAX TEMP:  71;

RIVERTON       FAIR      61  50  67 NE7       30.26R
6HR MIN TEMP:  61; 6HR MAX TEMP:  73;

CASPER         CLOUDY    61  56  83 N10       30.25R
6HR MIN TEMP:  55; 6HR MAX TEMP:  67;

DOUGLAS          N/A    N/A N/A N/A MISG      30.20R

$$
WYZ021-027>030-104>119-281300-
SOUTHERN WYOMING

CITY           SKY/WX    TMP DP  RH WIND       PRES   REMARKS
EVANSTON       FAIR      64  25  22 CALM      30.30R
6HR MIN TEMP:  58; 6HR MAX TEMP:  67;

KEMMERER         N/A     50  30  46 N9        30.31S
FORT BRIDGER   FAIR      58  25  28 NW7       30.31R
ROCK SPRINGS   FAIR      60  25  26 S3        30.29R
6HR MIN TEMP:  57; 6HR MAX TEMP:  72;

DIXON          FAIR      45  32  61 SE6       30.30R
RAWLINS        FAIR      49  38  65 NW3       30.27R
6HR MIN TEMP:  48; 6HR MAX TEMP:  66;

SARATOGA       FAIR      46  32  57 NW3       30.29R
LARAMIE        FAIR      51  49  92 W9        30.26R
6HR MIN TEMP:  51; 6HR MAX TEMP:  65;

CHEYENNE       FAIR      58  55  90 S7        30.19F
6HR MIN TEMP:  57; 6HR MAX TEMP:  65;

TORRINGTON     CLOUDY    62  56  80 E21G32    30.16S
6HR MIN TEMP:  60; 6HR MAX TEMP:  65;

PINE BLUFFS    FAIR      59  59 100 N3        30.18R

$$



USA.gov is the U.S. government's official web portal to all federal, state and local government web resources and services.